Regional Weather Roundup
Issued by NWS

Home | Current Version | Previous Version | Graphics & Text | Print | Product List | Glossary On
Versions: 1 2 3 4 5 6 7 8 9 10 11 12 13 14 15 16 17 18 19 20 21 22 23 24 25 26 27 28 29 30 31 32 33 34 35 36 37 38 39 40 41 42 43 44 45 46 47 48 49 50
000
ASUS45 KBOI 090110
RWRID

IDAHO REGIONAL WEATHER ROUNDUP
NATIONAL WEATHER SERVICE BOISE ID
600 PM MST MON FEB 08 2016

NOTE: "FAIR" INDICATES FEW OR NO CLOUDS BELOW 12000 FEET
WITH NO SIGNIFICANT WEATHER AND/OR OBSTRUCTIONS TO VISIBILITY

IDZ012-014-090200-
SOUTHWEST IDAHO


CITY           SKY/WX    TMP DP  RH WIND       PRES   REMARKS
BOISE          CLEAR     42  33  70 S7        30.63F
CALDWELL       NOT AVBL
MOUNTAIN HOME  CLEAR     37  32  81 SE6       30.64S WCI  32
$$

IDZ016-017-090200-
SOUTHCENTRAL IDAHO


CITY           SKY/WX    TMP DP  RH WIND       PRES   REMARKS
BURLEY         MOCLDY    30  27  88 NE6       30.61F WCI  24
JEROME         MOCLDY    29  25  85 E7        30.63S WCI  22
TWIN FALLS     FOG       30  29  96 E7        30.62S VSB<1/4 WCI  23
$$

IDZ019>023-090200-
SOUTHEAST IDAHO


CITY           SKY/WX    TMP DP  RH WIND       PRES   REMARKS
IDAHO FALLS    CLOUDY    23  21  92 NW7       30.65F FOG     WCI  15
POCATELLO      CLOUDY    28  25  88 NE7       30.66R WCI  21
REXBURG        CLOUDY    28  23  81 NE7       30.64S WCI  21
$$

IDZ006-010-011-018-031-032-090200-
CENTRAL IDAHO MOUNTAINS


CITY           SKY/WX    TMP DP  RH WIND       PRES   REMARKS
MCCALL         PTCLDY    30  24  78 CALM      30.57S
STANLEY          N/A     29  23  78 S5        30.60S WCI  24
SALMON         CLOUDY    25  18  74 SE3       30.64R
CHALLIS        PTCLDY    18  12  77 CALM      30.62F
$$

IDZ002-004-006-007-026-090200-
NORTHERN IDAHO


CITY           SKY/WX    TMP DP  RH WIND       PRES   REMARKS
LEWISTON       CLEAR     51  35  54 CALM      30.51F
LOWELL           N/A     40  36  86 CALM      30.56R
COEUR D`ALENE  MOCLDY    45  32  61 N7        30.51S
MULLAN PASS    MOCLDY    37  29  72 SW7       30.52F WCI  32
$$



USA.gov is the U.S. government's official web portal to all federal, state and local government web resources and services.